Flag for Germany Weather past 2 weeks in Geislingen an der Steige, Baden-Württemberg, Germany

Now
28 °F

Light snow. Low clouds.


Feels Like: 19 °F
Forecast: 24 / 34 °F
Wind: 9 mph from West

Location: Stoetten

Current Time: Feb 1, 2015 at 6:47:14 PM

Latest Report: Feb 1, 2015 at 6:00 PM


Visibility: 1 mi

Pressure: 29.38 "Hg

Humidity: 98%

Dew point: 27 °F

Location of Geislingen an der SteigeLocation

Historic Weather in Geislingen an der Steige — Graph

°F

Geislingen an der Steige temperature yesterday

Maximum temperature yesterday: 30 °F (at 4:00 PM)
Minimum temperature yesterday: 23 °F (at 9:00 AM)
Average temperature yesterday: 27 °F

Past Weeks' High & Low Weather Summary

 TemperatureHumidityPressure
High33 °F (Jan 29, 1:00 AM)100% (Jan 17, 5:00 PM)30.46 "Hg (Jan 17, 5:00 PM)
Low23 °F (Jan 31, 9:00 AM)75% (Jan 31, 4:00 PM)28.79 "Hg (Jan 30, 2:00 AM)
Average28 °F96%29.86 "Hg
* Reported Jan 17 5:00 PM — Feb 1 5:00 PM, Geislingen an der Steige, Weather by CustomWeather, © 2014

Note: Actual official high and low records may vary slightly from our data, if they occured in-between our weather recording intervals... More about our weather records

Advertising

Geislingen an der Steige weather history for previous 24 hours

 ConditionsComfort  
Time TempWeatherWind HumidityBarometerVisibility
5:00 PM
Feb 1
26 °FSnow. Low clouds.2 mph99%29.38 "Hg1 mi
4:00 PM26 °FSnow. Low clouds.7 mph95%29.38 "Hg1 mi
3:00 PM28 °FSnow flurries. Overcast.3 mph86%29.35 "Hg3 mi
2:00 PM28 °FPartly sunny.5 mph86%29.32 "Hg25 mi
1:00 PM27 °FLow clouds.8 mph87%29.32 "Hg7 mi
12:00 PM27 °FSnow flurries. Overcast.8 mph92%29.32 "Hg4 mi
11:00 AM27 °FLight snow. Low clouds.8 mph95%29.29 "Hg2 mi
10:00 AM27 °FSnow flurries. Overcast.9 mph89%29.29 "Hg19 mi
9:00 AM26 °FLight snow. Low clouds.7 mph96%29.26 "Hg3 mi
8:00 AM25 °FLight snow. Low clouds.5 mph96%29.23 "Hg1 mi
7:00 AM25 °FLight snow. Overcast.8 mph91%29.23 "Hg5 mi
6:00 AM25 °FOvercast.6 mph85%29.21 "Hg37 mi
5:00 AM26 °FOvercast.6 mph79%29.21 "Hg28 mi
4:00 AM27 °FOvercast.7 mph79%29.21 "Hg28 mi
3:00 AM25 °FPassing clouds.2 mph94%29.23 "Hg8 mi
2:00 AM25 °FClear.5 mph94%29.23 "Hg10 mi
1:00 AM26 °FOvercast.3 mph96%29.23 "Hg11 mi
12:00 AM24 °FPassing clouds.5 mph92%29.23 "Hg19 mi
11:00 PM
Jan 31
27 °FLow clouds.7 mph94%29.21 "Hg7 mi
10:00 PM29 °FOvercast.6 mph89%29.21 "Hg14 mi
9:00 PM28 °FOvercast.6 mph91%29.18 "Hg14 mi
8:00 PM28 °FSnow flurries. Overcast.5 mph92%29.18 "Hg14 mi
7:00 PM28 °FLight snow. Overcast.6 mph90%29.18 "Hg5 mi
6:00 PM28 °FOvercast.2 mph83%29.15 "Hg34 mi
Weather by CustomWeather, © 2014

See weather overviewHow to use our weather pages